{"data":{"norad_id":49961,"epoch":"2026-09-20T03:24:42.245568Z","epoch_age_seconds":131310,"freshness":"FRESH","line1":"1 49961U 21122A   26263.14215562  .00000530  00000+0  47315-4 0  9993","line2":"2 49961  97.4229 227.1814 0002533  41.9393 318.2024 14.99774427262982","mean_motion":14.99774427,"eccentricity":0.0002533,"inclination_deg":97.4229,"raan_deg":227.1814,"arg_perigee_deg":41.9393,"mean_anomaly_deg":318.2024,"bstar":4.7315e-5,"rev_number":26298,"period_min":96.014438843342,"perigee_km":565.8333515896,"apogee_km":569.35205825812,"semimajor_km":6945.7297049239,"source":"CELESTRAK","updated_at":"2026-09-21T09:00:08.141888Z"}}